Location: Home
(42.5358°N, 72.7383°W)
Time: 20:53:34
(UTC-05:00)

Altair - Pass Details

Date: 11 December 2021
Orbit: 1501 x 1683 km, 47.2° (Epoch: 26 January)

Event Time Altitude Azimuth Distance (km) Brightness Sun altitude
Rises 21:38:09 0° 288° (WNW) 4,657 10.5 -57.4°
Reaches altitude 10° 21:42:47 10° 268° (W) 3,656 9.8 -58.1°
Enters shadow 21:43:57 12° 262° (W) 3,479 9.6 -58.3°
